Volver al catálogo

AAC-IO1

ActivoCienciaSSO
NORAD 68498·PAYLOAD·🇬🇧 United Kingdom

Lanzado Mar 30, 2026 desde Vandenberg Space Force Base

Loading…

Próximos Pases (próximas 24 horas)

TLE

ActualizadoSource: Space-Track

Época: Sep 14, 2026, 08:22 UTC

1 68498U 26067CL  26257.34882557  .00001182  00000-0  12235-3 0  9998
2 68498  97.7676 214.1065 0003763 107.2960 252.8671 14.91927467 25011

Sigue AAC-IO1 en tiempo real con AllMySat

Download on the App Store